Location: *
(55.6049°S, 142.1985°W)
Time: 01:09:34
(UTC+00:00)

SJ-6B - Pass Details

Date: 12 May 2021
Orbit: 509 x 580 km, 97.6° (Epoch: 18 June)

Event Time Altitude Azimuth Distance (km) Brightness Sun altitude
Rises 16:30:22 0° 32° (NNE) 2,729 7.4 -6.2°
Reaches altitude 10° 16:32:32 10° 37° (NE) 1,831 6.6 -6.0°
Maximum altitude 16:36:22 49° 111° (ESE) 715 3.8 -5.5°
Drops below altitude 10° 16:40:09 10° 186° (S) 1,815 5.2 -5.0°
Sets 16:42:18 0° 191° (S) 2,704 6.0 -4.7°
